Flag for Iran Weather past 2 weeks in Mashhad, Iran

Now
43 °F

Scattered clouds.


Feels Like: 34 °F
Forecast: 30 / 46 °F
Wind: 21 mph from Northwest

Location: Mashhad Airport

Current Time: Jan 31, 2015 at 4:54:39 PM

Latest Report: Jan 31, 2015 at 4:30 PM


Visibility: N/A

Pressure: 29.86 "Hg

Humidity: 71%

Dew point: 34 °F

Location of MashhadLocation

Historic Weather in Mashhad — Graph

°F

Mashhad temperature yesterday

Maximum temperature yesterday: 59 °F (at 12:00 PM)
Minimum temperature yesterday: 39 °F (at 5:00 AM)
Average temperature yesterday: 47 °F

Past Weeks' High & Low Weather Summary

 TemperatureHumidityPressure
High63 °F (Jan 16, 3:30 PM)100% (Jan 17, 10:00 PM)30.39 "Hg (Jan 17, 10:00 PM)
Low25 °F (Jan 26, 6:59 AM)16% (Jan 16, 4:00 PM)29.74 "Hg (Jan 31, 1:30 PM)
Average37 °F75%30.15 "Hg
* Reported Jan 16 3:30 PM — Jan 31 4:00 PM, Mashhad, Weather by CustomWeather, © 2014

Note: Actual official high and low records may vary slightly from our data, if they occured in-between our weather recording intervals... More about our weather records

Advertising

Mashhad weather history for previous 24 hours

 ConditionsComfort  
Time TempWeatherWind HumidityBarometerVisibility
4:00 PM
Jan 31
45 °FScattered clouds.21 mph71%29.86 "HgN/A
3:30 PM43 °FPartly sunny.21 mph81%29.86 "HgN/A
3:00 PM45 °FBroken clouds.28 mph81%29.83 "HgN/A
2:30 PM61 °FSprinkles. Broken clouds.21 mph39%29.80 "Hg4 mi
2:00 PM55 °FScattered clouds.9 mph59%29.74 "HgN/A
1:30 PM54 °FScattered clouds.9 mph63%29.74 "HgN/A
1:00 PM54 °FPartly sunny.7 mph63%29.77 "HgN/A
12:30 PM54 °FScattered clouds.7 mph63%29.80 "HgN/A
11:55 AM54 °FScattered clouds.5 mph63%29.80 "HgN/A
11:30 AM54 °FScattered clouds.9 mph63%29.80 "HgN/A
10:55 AM52 °FScattered clouds.5 mph67%29.83 "HgN/A
10:30 AM52 °FScattered clouds.9 mph62%29.86 "HgN/A
9:55 AM50 °FScattered clouds.7 mph71%29.86 "HgN/A
9:30 AM48 °FScattered clouds.5 mph82%29.89 "Hg5 mi
9:00 AM45 °FScattered clouds.5 mph87%29.89 "Hg4 mi
8:30 AM43 °FFog.5 mph93%29.89 "Hg3 mi
8:00 AM41 °FScattered clouds.5 mph100%29.89 "Hg4 mi
7:30 AM39 °FSprinkles. Fog.7 mph100%29.92 "Hg2 mi
6:30 AM37 °FFog.5 mph100%29.89 "Hg2 mi
6:00 AM37 °FFog.No wind93%29.89 "Hg2 mi
5:30 AM37 °FClear.5 mph93%29.92 "Hg4 mi
5:00 AM36 °FClear.5 mph100%29.92 "Hg4 mi
4:30 AM36 °FClear.5 mph100%29.92 "Hg4 mi
4:00 AM37 °FClear.No wind100%29.95 "Hg10 mi
3:20 AM37 °FClear.5 mph100%29.95 "Hg10 mi
3:00 AM39 °FClear.5 mph93%29.95 "Hg10 mi
2:30 AM37 °FClear.5 mph100%29.98 "Hg5 mi
2:00 AM37 °FClear.No wind100%29.98 "Hg4 mi
1:30 AM39 °FClear.No wind93%29.98 "Hg4 mi
1:00 AM39 °FClear.7 mph93%29.98 "Hg10 mi
12:30 AM39 °FClear.No wind93%30.01 "Hg5 mi
12:00 AM39 °FClear.No wind93%30.01 "Hg10 mi
11:30 PM
Jan 30
41 °FClear.No wind81%30.04 "Hg10 mi
11:00 PM41 °FClear.No wind87%30.04 "Hg10 mi
10:30 PM39 °FClear.No wind87%30.04 "Hg10 mi
10:00 PM41 °FClear.7 mph76%30.04 "Hg10 mi
9:30 PM43 °FClear.5 mph76%30.04 "Hg10 mi
9:00 PM45 °FClear.7 mph71%30.04 "Hg10 mi
8:30 PM45 °FPassing clouds.5 mph71%30.04 "HgN/A
8:00 PM46 °FPassing clouds.5 mph66%30.04 "HgN/A
7:30 PM45 °FPassing clouds.No wind76%30.04 "HgN/A
7:00 PM48 °FPassing clouds.7 mph66%30.04 "HgN/A
6:30 PM48 °FPassing clouds.5 mph66%30.04 "HgN/A
6:00 PM48 °FPassing clouds.5 mph71%30.04 "HgN/A
5:30 PM48 °FPassing clouds.No wind76%30.01 "HgN/A
5:00 PM50 °FPartly sunny.No wind67%30.01 "HgN/A
4:30 PM52 °FPartly sunny.No wind62%30.01 "HgN/A
4:00 PM52 °FPartly sunny.9 mph62%30.01 "HgN/A
Weather by CustomWeather, © 2014

See weather overviewHow to use our weather pages